Regional Weather Roundup
Issued by NWS

Home | Current Version | Previous Version | Text Only | Print | Product List | Glossary On
Versions: 1 2 3 4 5 6 7 8 9 10 11 12 13 14 15 16 17 18 19 20 21 22 23 24 25 26 27 28 29 30 31 32 33 34 35 36 37 38 39 40 41 42 43 44 45 46 47 48 49 50
000
ASUS43 KDMX 041507
RWRIA

WEATHER ROUNDUP FOR IOWA
NATIONAL WEATHER SERVICE DES MOINES IA
1000 AM CDT MON MAY 04 2015

NOTE: "FAIR" INDICATES FEW OR NO CLOUDS BELOW 12,000 FEET WITH NO
SIGNIFICANT WEATHER AND/OR OBSTRUCTIONS TO VISIBILITY.

* - THESE STATIONS ARE NOT NWS STATIONS...THUS NOT UNDER NWS
QUALITY CONTROL.  THEY ALSO DO NOT REPORT WEATHER SUCH
AS PRECIPITATION OR FOG.

IAZ001>003-012>014-020>022-031>034-043>046-041600-
   NORTHWEST IOWA

CITY           SKY/WX    TMP DP  RH WIND       PRES   REMARKS
CARROLL *      MOSUNNY   63  48  59 NE18      30.09R
CHEROKEE *     PTSUNNY   63  36  36 NE10G17   30.13S
DENISON *      MOSUNNY   59  48  67 NE13G18   30.07F
LE MARS *      SUNNY     63  32  31 NE16G26   30.14F
ORANGE CITY *  SUNNY     63  32  31 E10G20    30.15R
SHELDON *      SUNNY     63  36  36 E16       30.14R
SIOUX CITY     PTSUNNY   64  37  36 NE17      30.12R
SPENCER        PTSUNNY   61  41  47 NE17      30.15R
STORM LAKE *   SUNNY     61  43  51 NE20G25   30.13S
$$

IAZ055>058-069>071-079>083-090>094-041600-
   SOUTHWEST IOWA

CITY           SKY/WX    TMP DP  RH WIND       PRES   REMARKS
ATLANTIC *     SUNNY     61  54  77 NE15G25   30.04F
AUDUBON *      SUNNY     63  54  72 NE14      30.09S
CLARINDA *     SUNNY     63  59  88 CALM      30.07R
COUNCIL BLFS * SUNNY     63  55  77 NE10      30.08R
CRESTON *      SUNNY     63  59  88 NE14      30.06S
HARLAN  *      SUNNY     64  54  68 NE16G30   30.09F
LAMONI         PTSUNNY   68  60  75 N9        30.04R
RED OAK *      MOSUNNY   61  57  88 SW7       30.06R
SHENANDOAH *   MOSUNNY   63  59  88 N7        30.06R
$$

IAZ047>049-059>061-072>074-084-041600-
   CENTRAL IOWA

CITY           SKY/WX    TMP DP  RH WIND       PRES   REMARKS
AMES           PTSUNNY   64  57  78 NE15      30.07R
ANKENY *       CLOUDY    66  59  77 NE13      30.05R
CHARITON *     SUNNY     66  59  77 CALM      30.04S
DES MOINES     CLOUDY    68  57  68 NE15      30.05R
GRINNELL*      PTSUNNY   66  57  72 NE16G22   30.06R
KNOXVILLE *    SUNNY     66  59  77 NE5       30.03R
MARSHALLTOWN   PTSUNNY   66  60  81 NE15      30.05R
PELLA *        PTSUNNY   68  63  83 E5        30.06R
PERRY *          N/A     64  57  77 NE15      30.07R
$$

IAZ004>006-015-016-023>025-035-036-041600-
   NORTH CENTRAL IOWA

CITY           SKY/WX    TMP DP  RH WIND       PRES   REMARKS
ALGONA *       SUNNY     61  43  51 NE20G26   30.13R
CLARION *      SUNNY     63  48  59 NE20G26   30.10R
ESTHERVILLE    MOSUNNY   62  34  35 NE23      30.14R
FORT DODGE *   PTSUNNY   63  46  55 NE16G23   30.12R
MASON CITY     MOSUNNY   61  46  57 NE17      30.13R
FOREST CITY *  SUNNY     59  41  51 NE13      30.13R
IOWA FALLS *     N/A     63  52  67 NE16G22   30.10R
$$

IAZ007>011-017>019-026>030-037>042-050>054-066-041600-
   NORTHEAST IOWA

CITY           SKY/WX    TMP DP  RH WIND       PRES   REMARKS
CEDAR RAPIDS   PTSUNNY   66  61  84 NE7       30.06R
CHARLES CITY * SUNNY     61  48  63 NE17      30.12R
CLINTON *      CLOUDY    63  57  82 NE8       30.10R
DECORAH *      SUNNY     61  45  55 NE9G18    30.10R
DUBUQUE        CLOUDY    63  58  83 NE8       30.09R
MONTICELLO *   MOSUNNY   64  63  94 NE9       30.07R
OELWEIN *      CLOUDY    61  59  94 NE13G18   30.09R
WATERLOO       CLOUDY    62  58  86 NE12      30.08R
$$

IAZ064-065-067-068-078-041600-
   EAST CENTRAL IOWA

CITY           SKY/WX    TMP DP  RH WIND       PRES   REMARKS
DAVENPORT      PTSUNNY   68  60  75 NE6       30.07R
IOWA CITY      CLOUDY    66  60  81 NE6       30.08R
MT. PLEASANT * DRIZZLE   63  61  94 SE8       30.04S
MUSCATINE *    PTSUNNY   66  61  82 S6        30.05R
QUAD CITIES    PTSUNNY   66  59  78 VRB3      30.06R
$$

IAZ062-063-075>077-085>089-095>099-041600-
   SOUTHEAST IOWA

CITY           SKY/WX    TMP DP  RH WIND       PRES   REMARKS
BURLINGTON     CLOUDY    65  62  90 S6        30.05R
FAIRFIELD *    SUNNY     68  59  73 S10       30.04R
FORT MADISON * PTSUNNY   66  61  82 S6        30.06R
KEOKUK *       CLOUDY    68  61  77 SW6       30.05R
OSKALOOSA *      N/A     70  61  73 S9        30.04S
CENTERVILLE *  SUNNY     72  64  78 S7        30.06R
OTTUMWA        PTSUNNY   71  61  70 S9        30.04R
WASHINGTON *   SUNNY     68  68 100 S13       30.04R
$$

ABBREVIATIONS USED IN REMARKS
   TC - TEMPERATURES IN CELSIUS
  WCI - WIND CHILL INDEX
   HX - HEAT INDEX
  VSB - VISIBILITY
$$



USA.gov is the U.S. government's official web portal to all federal, state and local government web resources and services.